Flag for Germany Weather past 2 weeks in Heide, Schleswig-Holstein, Germany

Now
81 °F

Pleasantly warm.


Feels Like: 80 °F
Forecast: 64 / 74 °F
Wind: 20 mph from Northeast

Location: Hohn

Current Time: Jul 25, 2014 at 8:45:45 PM

Latest Report: Jul 25, 2014 at 7:20 PM


Visibility: N/A

Pressure: 29.98 "Hg

Humidity: 39%

Dew point: 54 °F

Location of HeideLocation

Historic Weather in Heide — Graph

°F

Heide temperature yesterday

Maximum temperature yesterday: 81 °F (at 2:20 PM)
Minimum temperature yesterday: 54 °F (at 5:20 AM)
Average temperature yesterday: 69 °F

Past Weeks' High & Low Weather Summary

 TemperatureHumidityPressure
High88 °F (Jul 19, 2:20 PM)100% (Jul 16, 6:20 AM)30.21 "Hg (Jul 16, 6:20 AM)
Low48 °F (Jul 17, 4:20 AM)30% (Jul 25, 5:20 PM)29.62 "Hg (Jul 13, 6:20 PM)
Average68 °F68%30.00 "Hg
* Reported Jul 10 7:20 PM — Jul 25 7:20 PM, Heide, Weather by CustomWeather, © 2014

Note: Actual official high and low records may vary slightly from our data, if they occured in-between our weather recording intervals... More about our weather records

Advertising

Heide weather history for previous 24 hours

 ConditionsComfort  
Time TempWeatherWind HumidityBarometerVisibility
7:20 PM
Jul 25
81 °FPleasantly warm.20 mph39%29.98 "HgN/A
6:20 PM81 °FPleasantly warm.23 mph34%29.98 "HgN/A
5:20 PM82 °FPleasantly warm.23 mph30%29.98 "HgN/A
4:20 PM82 °FPleasantly warm.21 mph35%29.98 "Hg6 mi
3:20 PM84 °FPartly sunny.21 mph33%30.01 "HgN/A
2:20 PM82 °FPartly sunny.20 mph40%30.01 "HgN/A
1:20 PM81 °FScattered clouds.17 mph45%30.01 "HgN/A
12:20 PM77 °FBroken clouds.17 mph61%30.04 "HgN/A
11:20 AM75 °FBroken clouds.17 mph61%30.04 "HgN/A
10:20 AM75 °FScattered clouds.16 mph65%30.04 "HgN/A
9:20 AM73 °FScattered clouds.16 mph65%30.04 "HgN/A
8:20 AM70 °FBroken clouds.13 mph73%30.04 "HgN/A
7:20 AM68 °FPartly sunny.9 mph78%30.04 "HgN/A
6:20 AM66 °FPassing clouds.6 mph78%30.04 "HgN/A
5:20 AM66 °FPassing clouds.7 mph78%30.07 "HgN/A
4:20 AM66 °FMild.7 mph78%30.07 "Hg6 mi
3:20 AM66 °FMild.7 mph73%30.07 "HgN/A
2:20 AM63 °FMild.5 mph77%30.07 "HgN/A
1:20 AM63 °FMild.3 mph73%30.07 "HgN/A
12:20 AM64 °FMild.6 mph68%30.09 "HgN/A
11:20 PM
Jul 24
64 °FMild.5 mph64%30.09 "HgN/A
10:20 PM66 °FMild.5 mph68%30.09 "HgN/A
9:20 PM70 °FBroken clouds.7 mph60%30.07 "HgN/A
8:20 PM73 °FBroken clouds.12 mph53%30.07 "HgN/A
Weather by CustomWeather, © 2014

See weather overviewHow to use our weather pages